DW5033 Odessa FL US current weather conditions

sailwx.info

Wind from 026

Air temperature 21.7° C
Dewpoint 21.0° C

Last reported at 2019-Nov-15 05:09 UTC.
Time now 2019-Nov-15 05:37 UTC

Location: N 28°07' W 082°36'.
View on Google Maps.

See reports from other nearby stations

  
Tides and Currents Weather Stations Pressure Air Temp Water Temp Dewpoint Dewpoint Depression Visibility Wind Speed Wind Dir Waves Ship Positions
date/time (UTC)wind fromknots sea level pressurealtimeterstation pressurevisibilityair tempwater tempwave heightnotes
2019-Nov-15 05:09 026 21.7
2019-Nov-15 05:05 136 0 gusting 1 22.2
2019-Nov-15 04:59 136 22.2
2019-Nov-15 04:54 136 22.2
2019-Nov-15 04:49 136 22.2
2019-Nov-15 04:44 131 1 gusting 2 22.2
2019-Nov-15 04:39 123 22.2
2019-Nov-15 04:34 123 22.2
2019-Nov-15 04:29 123 22.2
2019-Nov-15 04:24 123 22.2
2019-Nov-15 04:19 123 22.2
2019-Nov-15 04:14 123 22.2
2019-Nov-15 04:09 123 22.2
2019-Nov-15 04:04 123 22.2
2019-Nov-15 03:59 123 22.2
2019-Nov-15 03:54 123 22.2
2019-Nov-15 03:49 123 1 gusting 2 22.2
2019-Nov-15 03:44 123 22.2
2019-Nov-15 03:39 087 0 gusting 2 22.2
2019-Nov-15 03:34 090 0 gusting 3 22.8
2019-Nov-15 03:29 090 2 gusting 3 22.8
2019-Nov-15 03:24 089 22.8
2019-Nov-15 03:19 115 0 gusting 6 22.8
2019-Nov-15 03:14 095 3 gusting 6 22.8
2019-Nov-15 03:09 114 2 gusting 6 22.8
2019-Nov-15 03:04 122 1 gusting 6 22.8
2019-Nov-15 02:59 097 2 gusting 6 22.8
2019-Nov-15 02:54 110 3 gusting 6 22.8
2019-Nov-15 02:49 115 4 gusting 8 22.8
2019-Nov-15 02:44 119 5 gusting 9 22.2
2019-Nov-15 02:39 118 6 gusting 9 22.2
2019-Nov-15 02:34 128 4 gusting 9 22.2
2019-Nov-15 02:29 138 4 gusting 9 22.2
2019-Nov-15 02:24 111 5 gusting 9 22.2
2019-Nov-15 02:19 115 5 gusting 7 22.2
2019-Nov-15 02:14 139 6 gusting 8 22.2
2019-Nov-15 02:09 113 5 gusting 9 22.2
2019-Nov-15 02:04 118 5 gusting 9 22.2
2019-Nov-15 01:59 097 5 gusting 7 22.2
2019-Nov-15 01:54 098 5 gusting 6 22.2
2019-Nov-15 01:49 137 3 gusting 6 22.8
2019-Nov-15 01:44 126 2 gusting 6 22.8
2019-Nov-15 01:39 103 3 gusting 5 22.8
2019-Nov-15 01:34 093 3 gusting 6 22.8
2019-Nov-15 01:29 091 4 gusting 6 22.8
2019-Nov-15 01:24 125 3 gusting 6 22.8
2019-Nov-15 01:19 116 4 gusting 9 22.8
2019-Nov-15 01:14 088 6 gusting 10 22.8
2019-Nov-15 01:09 091 6 gusting 10 22.8
2019-Nov-15 01:04 091 7 gusting 10 22.8
2019-Nov-15 00:59 119 6 gusting 6 22.8
2019-Nov-15 00:54 097 3 gusting 6 22.8
2019-Nov-15 00:49 103 4 gusting 6 22.8
2019-Nov-15 00:44 061 5 gusting 6 22.8
2019-Nov-15 00:39 084 3 gusting 6 22.8
2019-Nov-15 00:34 088 3 gusting 7 22.8
2019-Nov-15 00:29 092 5 gusting 7 22.8
2019-Nov-15 00:24 104 5 gusting 8 22.8
2019-Nov-15 00:19 098 4 gusting 6 22.8
2019-Nov-15 00:14 094 4 gusting 6 22.8
2019-Nov-15 00:09 121 5 gusting 6 22.8
2019-Nov-15 00:04 108 4 gusting 6 22.8
2019-Nov-14 23:59 091 3 gusting 5 22.8
2019-Nov-14 23:54 068 2 gusting 5 22.8
2019-Nov-14 23:49 094 3 gusting 5 22.8
2019-Nov-14 23:44 080 2 gusting 3 22.8
2019-Nov-14 23:39 086 1 gusting 2 22.8
2019-Nov-14 23:34 087 22.8
2019-Nov-14 23:29 088 22.8
2019-Nov-14 23:24 088 23.3
2019-Nov-14 23:19 088 23.3
2019-Nov-14 23:14 088 1 gusting 2 23.3
2019-Nov-14 23:09 088 0 gusting 2 23.3
2019-Nov-14 23:04 088 1 gusting 3 23.3
2019-Nov-14 22:59 084 2 gusting 3 23.3
2019-Nov-14 22:54 104 1 gusting 5 23.9
2019-Nov-14 22:49 084 2 gusting 5 23.9
2019-Nov-14 22:44 108 1 gusting 6 23.9
2019-Nov-14 22:39 076 3 gusting 5 23.9
2019-Nov-14 22:34 139 3 gusting 6 23.9
2019-Nov-14 22:29 092 4 gusting 7 23.9
2019-Nov-14 22:24 090 3 gusting 7 23.9
2019-Nov-14 22:19 096 3 gusting 7 23.9
2019-Nov-14 22:14 126 6 gusting 9 23.9
2019-Nov-14 22:09 099 6 gusting 9 23.9
2019-Nov-14 22:04 112 4 gusting 7 23.9
2019-Nov-14 21:59 084 2 gusting 7 23.9
2019-Nov-14 21:54 070 2 gusting 7 23.9
2019-Nov-14 21:49 066 2 gusting 6 23.9
2019-Nov-14 21:44 074 2 gusting 7 23.9
2019-Nov-14 21:39 074 2 gusting 7 23.9
2019-Nov-14 21:34 088 4 gusting 6 23.9
2019-Nov-14 21:29 104 3 gusting 6 23.9
2019-Nov-14 21:24 081 3 gusting 6 23.9
2019-Nov-14 21:19 096 3 gusting 6 23.9
2019-Nov-14 21:14 100 4 gusting 6 23.9
2019-Nov-14 21:09 074 3 gusting 6 23.9
2019-Nov-14 21:04 098 2 gusting 6 23.9
2019-Nov-14 20:59 096 4 gusting 6 23.9
2019-Nov-14 20:54 092 2 gusting 6 23.9
2019-Nov-14 20:49 099 1 gusting 6 23.9
2019-Nov-14 20:44 098 3 gusting 6 23.9
2019-Nov-14 20:39 053 3 gusting 8 23.9
2019-Nov-14 20:34 093 5 gusting 8 23.9
2019-Nov-14 20:29 066 4 gusting 9 23.9
2019-Nov-14 20:24 106 5 gusting 9 23.9
2019-Nov-14 20:19 094 5 gusting 9 23.9
2019-Nov-14 20:14 089 6 gusting 9 23.9
2019-Nov-14 20:09 082 5 gusting 8 23.9
2019-Nov-14 20:04 080 4 gusting 7 23.9
2019-Nov-14 19:59 123 4 gusting 8 23.9
2019-Nov-14 19:54 111 4 gusting 9 23.9
2019-Nov-14 19:49 107 4 gusting 9 23.9
2019-Nov-14 19:44 128 4 gusting 8 23.9
2019-Nov-14 19:39 098 4 gusting 7 23.9
2019-Nov-14 19:34 094 4 gusting 10 23.9
2019-Nov-14 19:29 107 6 gusting 10 23.9
2019-Nov-14 19:24 088 4 gusting 9 23.9
2019-Nov-14 19:19 079 5 gusting 10 23.9
2019-Nov-14 19:14 078 5 gusting 10 23.9
2019-Nov-14 19:09 077 4 gusting 9 23.9
2019-Nov-14 19:04 109 6 gusting 9 23.9
2019-Nov-14 18:59 084 6 gusting 9 23.9
2019-Nov-14 18:54 088 6 gusting 8 23.9
2019-Nov-14 18:49 121 4 gusting 7 23.9
2019-Nov-14 18:44 117 4 gusting 8 23.3
2019-Nov-14 18:39 088 6 gusting 9 23.3
2019-Nov-14 18:34 090 5 gusting 11 23.3
2019-Nov-14 18:29 092 6 gusting 11 23.3
2019-Nov-14 18:24 074 3 gusting 7 23.3
2019-Nov-14 18:19 085 3 gusting 7 23.3
2019-Nov-14 18:14 061 3 gusting 6 23.3
2019-Nov-14 18:09 079 1 gusting 6 22.8
2019-Nov-14 18:04 090 2 gusting 6 22.8
2019-Nov-14 17:59 079 3 gusting 6 22.8
2019-Nov-14 17:54 093 3 gusting 6 22.8
2019-Nov-14 17:49 087 4 gusting 8 22.8
2019-Nov-14 17:44 059 6 gusting 9 22.8
2019-Nov-14 17:39 092 5 gusting 12 22.8
2019-Nov-14 17:34 090 7 gusting 12 22.8
2019-Nov-14 17:29 088 3 gusting 9 22.8
2019-Nov-14 17:24 101 5 gusting 10 22.8
2019-Nov-14 17:19 096 6 gusting 11 22.2
2019-Nov-14 17:14 081 5 gusting 7 22.2
2019-Nov-14 17:09 115 3 gusting 8 22.2
2019-Nov-14 17:04 096 6 gusting 8 22.2
2019-Nov-14 16:59 083 6 gusting 10 22.2
2019-Nov-14 16:54 098 7 gusting 10 22.2
2019-Nov-14 16:49 078 6 gusting 11 22.2
2019-Nov-14 16:44 083 4 gusting 8 21.7
2019-Nov-14 16:39 076 5 gusting 9 21.7
2019-Nov-14 16:34 096 6 gusting 9 21.7
2019-Nov-14 16:29 091 6 gusting 9 21.7
2019-Nov-14 16:24 084 2 gusting 6 21.7
2019-Nov-14 16:19 086 4 gusting 6 21.7
2019-Nov-14 16:14 069 4 gusting 6 21.1
2019-Nov-14 16:09 095 2 gusting 9 21.1
2019-Nov-14 16:04 084 5 gusting 9 21.1
2019-Nov-14 15:59 062 2 gusting 6 21.1
2019-Nov-14 15:54 046 3 gusting 6 21.1
2019-Nov-14 15:49 096 4 gusting 7 20.6
2019-Nov-14 15:44 062 2 gusting 9 20.6
2019-Nov-14 15:39 105 6 gusting 9 20.6
2019-Nov-14 15:34 090 3 gusting 7 20.6
2019-Nov-14 15:29 067 4 gusting 7 20.6
2019-Nov-14 15:19 091 6 gusting 10 20.0
2019-Nov-14 15:14 087 5 gusting 10 20.0
2019-Nov-14 15:09 082 6 gusting 10 20.0
2019-Nov-14 15:04 067 4 gusting 10 20.0
2019-Nov-14 14:59 088 5 gusting 10 20.0
2019-Nov-14 14:54 108 6 gusting 9 20.0
2019-Nov-14 14:49 084 5 gusting 9 20.0
2019-Nov-14 14:44 040 3 gusting 8 20.0
2019-Nov-14 14:39 098 4 gusting 8 20.0
2019-Nov-14 14:34 040 5 gusting 9 19.4
2019-Nov-14 14:29 102 3 gusting 9 19.4
2019-Nov-14 14:24 089 4 gusting 8 19.4
2019-Nov-14 14:19 046 3 gusting 8 18.9
2019-Nov-14 14:14 068 3 gusting 6 18.9
2019-Nov-14 14:09 068 3 gusting 7 18.9
2019-Nov-14 14:04 063 3 gusting 7 18.9
2019-Nov-14 13:59 055 3 gusting 5 18.3
2019-Nov-14 13:54 028 1 gusting 6 18.3
2019-Nov-14 13:49 059 1 gusting 6 18.3
2019-Nov-14 13:39 074 3 gusting 6 17.8
2019-Nov-14 13:34 042 2 gusting 7 17.8
2019-Nov-14 13:29 030 3 gusting 7 17.8
2019-Nov-14 13:24 060 3 gusting 6 17.8
2019-Nov-14 13:19 086 2 gusting 6 17.8
2019-Nov-14 13:14 035 3 gusting 6 17.8
2019-Nov-14 13:09 074 2 gusting 6 17.2
2019-Nov-14 13:04 046 0 gusting 4 17.2
2019-Nov-14 12:59 005 1 gusting 4 17.2
2019-Nov-14 12:54 011 0 gusting 5 17.2
2019-Nov-14 12:39 066 1 gusting 6 17.2
2019-Nov-14 12:34 048 3 gusting 6 17.2
2019-Nov-14 12:29 059 2 gusting 6 17.2
2019-Nov-14 12:24 346 1 gusting 5 17.2
2019-Nov-14 12:19 041 2 gusting 5 17.2
2019-Nov-14 12:14 067 2 gusting 5 17.2
2019-Nov-14 12:09 069 1 gusting 5 17.2
2019-Nov-14 12:04 058 3 gusting 5 16.7
2019-Nov-14 11:59 098 2 gusting 5 16.7
2019-Nov-14 11:54 090 1 gusting 3 16.7
2019-Nov-14 11:49 082 1 gusting 4 16.7
2019-Nov-14 11:44 101 0 gusting 7 16.7
2019-Nov-14 11:39 051 3 gusting 7 16.7
2019-Nov-14 11:34 065 1 gusting 7 16.7
2019-Nov-14 11:29 068 1 gusting 5 16.7
2019-Nov-14 11:24 051 2 gusting 5 16.7
2019-Nov-14 11:19 044 2 gusting 5 16.7
2019-Nov-14 11:14 031 2 gusting 6 16.7
2019-Nov-14 11:09 080 3 gusting 6 16.7
2019-Nov-14 11:04 082 3 gusting 5 16.7
2019-Nov-14 10:59 059 2 gusting 5 16.7
2019-Nov-14 10:54 055 2 gusting 5 16.1
2019-Nov-14 10:49 031 1 gusting 5 16.1
2019-Nov-14 10:44 028 2 gusting 6 16.1
2019-Nov-14 10:39 073 2 gusting 6 16.1
2019-Nov-14 10:34 071 2 gusting 6 16.1
2019-Nov-14 10:29 047 3 gusting 6 16.1
2019-Nov-14 10:24 046 16.1
2019-Nov-14 10:19 064 2 gusting 6 16.1
2019-Nov-14 10:14 042 2 gusting 5 16.1
2019-Nov-14 10:09 068 1 gusting 5 16.1
2019-Nov-14 10:04 044 0 gusting 6 16.1
2019-Nov-14 09:59 052 1 gusting 6 16.1
2019-Nov-14 09:54 065 3 gusting 4 16.1
2019-Nov-14 09:49 005 1 gusting 3 16.1
2019-Nov-14 09:44 360 0 gusting 4 16.7
2019-Nov-14 09:39 024 1 gusting 4 16.7
2019-Nov-14 09:34 017 16.7
2019-Nov-14 09:29 005 2 gusting 6 16.7
2019-Nov-14 09:24 053 2 gusting 6 16.7
2019-Nov-14 09:19 048 1 gusting 4 16.7
2019-Nov-14 09:14 061 2 gusting 4 16.7
2019-Nov-14 09:09 061 0 gusting 4 16.7
2019-Nov-14 09:05 044 0 gusting 4 16.7
2019-Nov-14 08:59 078 1 gusting 3 16.7
2019-Nov-14 08:54 057 16.7
2019-Nov-14 08:49 035 1 gusting 6 16.7
2019-Nov-14 08:44 046 1 gusting 4 16.7
2019-Nov-14 08:39 068 2 gusting 4 16.7
2019-Nov-14 08:34 065 1 gusting 4 16.7
2019-Nov-14 08:29 044 0 gusting 3 16.7
2019-Nov-14 08:24 048 0 gusting 3 16.7
2019-Nov-14 08:19 066 0 gusting 3 16.7
2019-Nov-14 08:14 042 0 gusting 3 16.7
2019-Nov-14 08:09 034 0 gusting 3 16.7
2019-Nov-14 08:04 096 0 gusting 3 16.7
2019-Nov-14 07:59 084 1 gusting 6 16.7
2019-Nov-14 07:54 099 2 gusting 6 16.7
2019-Nov-14 07:49 082 1 gusting 5 16.1
2019-Nov-14 07:44 047 1 gusting 4 16.1
2019-Nov-14 07:39 082 2 gusting 4 16.1
2019-Nov-14 07:34 069 2 gusting 7 16.1
2019-Nov-14 07:29 068 2 gusting 7 16.1
2019-Nov-14 07:24 085 3 gusting 5 16.7
2019-Nov-14 07:19 079 2 gusting 6 16.1
2019-Nov-14 07:14 054 3 gusting 12 16.1
2019-Nov-14 07:09 084 6 gusting 12 16.1
2019-Nov-14 07:04 069 2 gusting 9 16.1
2019-Nov-14 06:59 070 3 gusting 9 16.1
2019-Nov-14 06:54 026 3 gusting 5 16.1
2019-Nov-14 06:49 040 2 gusting 6 16.1
2019-Nov-14 06:44 063 2 gusting 5 16.1
2019-Nov-14 06:39 041 1 gusting 5 16.1
2019-Nov-14 06:34 123 1 gusting 5 16.1
2019-Nov-14 06:29 031 2 gusting 8 16.1
2019-Nov-14 06:24 038 3 gusting 8 16.1
2019-Nov-14 06:19 071 2 gusting 5 16.1
2019-Nov-14 06:14 066 2 gusting 7 16.1
2019-Nov-14 06:09 040 2 gusting 6 16.1
2019-Nov-14 06:04 067 3 gusting 5 16.1
2019-Nov-14 05:59 026 1 gusting 5 16.1
2019-Nov-14 05:54 051 2 gusting 5 16.1
2019-Nov-14 05:49 029 2 gusting 7 16.1
2019-Nov-14 05:44 055 2 gusting 7 16.1
2019-Nov-14 05:39 065 3 gusting 7 16.1
2019-Nov-14 05:34 067 3 gusting 6 16.1
2019-Nov-14 05:29 046 2 gusting 6 16.1
2019-Nov-14 05:24 069 3 gusting 6 16.1
2019-Nov-14 05:19 051 5 gusting 6 16.1
2019-Nov-14 05:14 055 1 gusting 5 16.1
2019-Nov-14 05:09 058 1 gusting 5 16.1
2019-Nov-14 05:04 062 1 gusting 5 16.1
2019-Nov-14 04:59 066 1 gusting 7 16.1
2019-Nov-14 04:54 067 3 gusting 9 16.1
2019-Nov-14 04:49 069 5 gusting 9 16.1
2019-Nov-14 04:44 067 4 gusting 6 16.1
2019-Nov-14 04:39 053 2 gusting 7 16.1
2019-Nov-14 04:34 044 3 gusting 6 16.1
2019-Nov-14 04:29 011 3 gusting 6 16.1
2019-Nov-14 04:24 064 2 gusting 6 16.1
2019-Nov-14 04:19 051 2 gusting 6 16.1
2019-Nov-14 04:14 026 2 gusting 6 16.1
2019-Nov-14 04:09 064 2 gusting 8 16.1
2019-Nov-14 04:04 063 4 gusting 8 16.1
2019-Nov-14 03:59 068 4 gusting 8 16.1
2019-Nov-14 03:54 041 3 gusting 8 16.1
2019-Nov-14 03:49 045 4 gusting 8 16.1
2019-Nov-14 03:44 064 5 gusting 8 16.1
2019-Nov-14 03:39 062 3 gusting 8 16.1
2019-Nov-14 03:34 054 4 gusting 9 16.7
2019-Nov-14 03:29 058 2 gusting 7 16.7
2019-Nov-14 03:24 090 4 gusting 7 16.7
2019-Nov-14 03:19 103 3 gusting 7 16.7
2019-Nov-14 03:14 065 4 gusting 7 16.7
2019-Nov-14 03:09 074 2 gusting 7 16.7
2019-Nov-14 03:04 077 3 gusting 7 16.7
2019-Nov-14 02:59 068 2 gusting 5 16.7
2019-Nov-14 02:54 080 1 gusting 4 16.7
2019-Nov-14 02:49 083 2 gusting 7 16.7
2019-Nov-14 02:44 082 4 gusting 7 16.7
2019-Nov-14 02:39 076 3 gusting 6 16.7
2019-Nov-14 02:34 068 3 gusting 7 16.7
2019-Nov-14 02:29 079 4 gusting 7 16.7
2019-Nov-14 02:24 068 2 gusting 5 16.7
2019-Nov-14 02:19 097 3 gusting 6 16.7
2019-Nov-14 02:14 015 2 gusting 6 17.2
2019-Nov-14 02:09 086 0 gusting 9 17.2
2019-Nov-14 02:04 058 2 gusting 9 17.2
2019-Nov-14 01:59 061 1 gusting 7 17.2
2019-Nov-14 01:54 089 2 gusting 10 17.2
2019-Nov-14 01:49 071 5 gusting 10 17.2
2019-Nov-14 01:44 075 3 gusting 7 17.2
2019-Nov-14 01:39 088 0 gusting 7 17.2
2019-Nov-14 01:34 097 2 gusting 7 17.2
2019-Nov-14 01:29 052 4 gusting 7 17.2
2019-Nov-14 01:24 039 5 gusting 7 17.2
2019-Nov-14 01:19 087 3 gusting 8 17.2
2019-Nov-14 01:14 089 5 gusting 7 17.2
2019-Nov-14 01:09 044 4 gusting 11 17.2
2019-Nov-14 01:04 048 5 gusting 8 17.2
2019-Nov-14 00:59 104 3 gusting 10 17.2
2019-Nov-14 00:54 034 5 gusting 10 17.2
2019-Nov-14 00:49 055 5 gusting 9 17.8
2019-Nov-14 00:45 042 2 gusting 8 17.8
2019-Nov-14 00:39 074 5 gusting 10 17.8
2019-Nov-14 00:34 071 5 gusting 10 17.8
2019-Nov-14 00:29 092 6 gusting 9 17.8
2019-Nov-14 00:24 092 6 gusting 9 17.8
2019-Nov-14 00:19 108 5 gusting 10 17.8
2019-Nov-14 00:14 062 5 gusting 12 17.8
2019-Nov-14 00:09 050 4 gusting 15 17.8
2019-Nov-14 00:04 083 6 gusting 15 17.8
2019-Nov-13 23:59 055 5 gusting 13 17.8
2019-Nov-13 23:54 075 6 gusting 11 18.3
2019-Nov-13 23:49 051 3 gusting 13 18.3
2019-Nov-13 23:44 059 6 gusting 13 18.3
2019-Nov-13 23:39 038 5 gusting 10 18.3
2019-Nov-13 23:35 074 3 gusting 10 18.3
2019-Nov-13 23:29 092 4 gusting 10 18.3
2019-Nov-13 23:24 071 3 gusting 14 18.3
2019-Nov-13 23:19 083 8 gusting 14 18.3
2019-Nov-13 23:14 099 5 gusting 12 18.3
2019-Nov-13 23:09 032 4 gusting 11 18.3
2019-Nov-13 23:04 086 7 gusting 12 18.3
2019-Nov-13 22:59 101 6 gusting 12 18.9
2019-Nov-13 22:54 049 6 gusting 13 18.9
2019-Nov-13 22:49 044 6 gusting 13 18.9
2019-Nov-13 22:44 053 6 gusting 13 18.9
2019-Nov-13 22:39 069 6 gusting 11 18.9
2019-Nov-13 22:35 074 2 gusting 11 18.9
2019-Nov-13 22:29 084 5 gusting 16 18.9
2019-Nov-13 22:24 071 5 gusting 16 18.9
2019-Nov-13 22:20 040 4 gusting 13 18.9
2019-Nov-13 22:14 085 7 gusting 16 18.9
2019-Nov-13 22:09 057 8 gusting 17 18.9
2019-Nov-13 22:05 036 11 gusting 18 18.9
2019-Nov-13 21:59 063 9 gusting 18 18.9
2019-Nov-13 21:54 130 5 gusting 12 18.9
2019-Nov-13 21:50 060 4 gusting 12 19.4
2019-Nov-13 21:44 071 6 gusting 14 19.4
2019-Nov-13 21:39 032 7 gusting 14 19.4
2019-Nov-13 21:34 073 7 gusting 12 19.4
2019-Nov-13 21:29 067 6 gusting 12 19.4
2019-Nov-13 21:24 088 6 gusting 18 19.4
2019-Nov-13 21:19 071 7 gusting 16 19.4
2019-Nov-13 21:14 105 4 gusting 13 19.4
2019-Nov-13 21:09 069 5 gusting 11 19.4
2019-Nov-13 21:04 073 5 gusting 12 19.4
2019-Nov-13 20:59 097 6 gusting 13 19.4
2019-Nov-13 20:55 085 6 gusting 15 19.4
2019-Nov-13 20:49 102 8 gusting 15 19.4
2019-Nov-13 20:44 073 10 gusting 14 19.4
2019-Nov-13 20:40 077 6 gusting 14 19.4
2019-Nov-13 20:34 063 6 gusting 13 19.4
2019-Nov-13 20:29 065 7 gusting 14 19.4
2019-Nov-13 20:24 071 8 gusting 14 19.4
2019-Nov-13 20:19 077 8 gusting 13 19.4
2019-Nov-13 20:14 028 7 gusting 13 19.4
2019-Nov-13 20:09 065 7 gusting 13 19.4
2019-Nov-13 20:04 086 8 gusting 12 19.4
2019-Nov-13 19:59 066 6 gusting 12 19.4
2019-Nov-13 19:54 083 4 gusting 10 19.4
2019-Nov-13 19:49 098 6 gusting 13 19.4
2019-Nov-13 19:44 069 8 gusting 13 19.4
2019-Nov-13 19:39 057 6 gusting 10 19.4
2019-Nov-13 19:34 105 5 gusting 12 19.4
2019-Nov-13 19:29 066 7 gusting 12 19.4
2019-Nov-13 19:24 079 6 gusting 9 19.4
2019-Nov-13 19:19 045 6 gusting 14 19.4
2019-Nov-13 19:14 074 6 gusting 14 19.4
2019-Nov-13 19:09 055 5 gusting 16 19.4
2019-Nov-13 19:04 053 6 gusting 13 19.4
2019-Nov-13 19:00 116 5 gusting 11 18.9
2019-Nov-13 18:54 042 6 gusting 15 18.9
2019-Nov-13 18:49 064 6 gusting 16 18.9
2019-Nov-13 18:44 077 7 gusting 13 18.9
2019-Nov-13 18:39 097 6 gusting 11 18.9
2019-Nov-13 18:34 040 6 gusting 12 18.9
2019-Nov-13 18:30 094 7 gusting 12 18.9
2019-Nov-13 18:24 060 7 gusting 13 18.9
2019-Nov-13 18:19 050 7 gusting 16 18.9
2019-Nov-13 18:14 062 11 gusting 16 18.9
2019-Nov-13 18:09 060 8 gusting 14 18.9
2019-Nov-13 18:04 038 4 gusting 13 18.9
2019-Nov-13 17:59 059 7 gusting 13 18.9
2019-Nov-13 17:54 086 7 gusting 14 18.3
2019-Nov-13 17:49 009 6 gusting 14 18.3
2019-Nov-13 17:44 044 10 gusting 15 18.3
2019-Nov-13 17:39 094 5 gusting 12 18.3
2019-Nov-13 17:34 034 4 gusting 11 17.8
2019-Nov-13 17:29 046 4 gusting 13 17.8
2019-Nov-13 17:24 066 7 gusting 13 17.8
2019-Nov-13 17:19 089 6 gusting 19 17.8
2019-Nov-13 17:14 066 9 gusting 19 17.8
2019-Nov-13 17:10 017 5 gusting 14 17.2
2019-Nov-13 17:04 080 6 gusting 14 17.2
2019-Nov-13 16:59 087 7 gusting 12 17.2
2019-Nov-13 16:55 046 6 gusting 13 17.2
2019-Nov-13 16:49 088 7 gusting 14 16.7
2019-Nov-13 16:44 081 8 gusting 13 16.7
2019-Nov-13 16:39 090 7 gusting 13 16.7
2019-Nov-13 16:34 082 9 gusting 16 16.7
2019-Nov-13 16:29 105 9 gusting 15 16.7
2019-Nov-13 16:24 355 6 gusting 13 16.7
2019-Nov-13 16:19 051 6 gusting 13 16.7
2019-Nov-13 16:14 060 7 gusting 13 16.7
2019-Nov-13 16:09 056 5 gusting 13 16.1
2019-Nov-13 16:04 049 6 gusting 15 16.1
2019-Nov-13 15:59 080 9 gusting 15 16.1
2019-Nov-13 15:54 040 9 gusting 15 16.1
2019-Nov-13 15:49 027 6 gusting 14 16.1
2019-Nov-13 15:44 075 8 gusting 13 16.1
2019-Nov-13 15:39 067 6 gusting 14 16.1
2019-Nov-13 15:34 088 5 gusting 13 15.6
2019-Nov-13 15:29 355 5 gusting 13 15.6
2019-Nov-13 15:24 059 6 gusting 13 15.6
2019-Nov-13 15:19 045 8 gusting 13 15.6
2019-Nov-13 15:15 024 6 gusting 13 15.0
2019-Nov-13 15:09 325 6 gusting 13 15.0
2019-Nov-13 15:04 355 5 gusting 11 15.0
2019-Nov-13 14:59 065 5 gusting 12 15.0
2019-Nov-13 14:54 047 5 gusting 13 15.0
2019-Nov-13 14:49 009 5 gusting 13 15.0
2019-Nov-13 14:44 063 6 gusting 13 15.0
2019-Nov-13 14:39 072 6 gusting 12 15.0
2019-Nov-13 14:34 021 6 gusting 11 15.0
2019-Nov-13 14:29 076 5 gusting 12 14.4
2019-Nov-13 14:24 023 7 gusting 13 14.4
2019-Nov-13 14:19 079 6 gusting 13 14.4
2019-Nov-13 14:14 034 6 gusting 13 14.4
2019-Nov-13 14:09 031 7 gusting 13 14.4
2019-Nov-13 14:05 070 6 gusting 13 13.9
2019-Nov-13 13:59 055 6 gusting 13 13.9
2019-Nov-13 13:54 053 6 gusting 13 13.9
2019-Nov-13 13:49 084 5 gusting 10 13.9
2019-Nov-13 13:45 063 6 gusting 11 13.9
2019-Nov-13 13:39 056 4 gusting 11 13.9
2019-Nov-13 13:34 324 6 gusting 11 13.3
2019-Nov-13 13:29 030 4 gusting 11 13.3
2019-Nov-13 13:24 021 4 gusting 10 13.3
2019-Nov-13 13:19 052 3 gusting 12 13.3
2019-Nov-13 13:14 055 5 gusting 12 13.3
2019-Nov-13 13:09 064 5 gusting 10 12.8
2019-Nov-13 13:04 029 6 gusting 11 12.8
2019-Nov-13 12:59 046 5 gusting 11 12.8
2019-Nov-13 12:54 027 5 gusting 9 12.8
2019-Nov-13 12:49 015 4 gusting 9 12.8
2019-Nov-13 12:45 326 3 gusting 11 12.8
2019-Nov-13 12:39 355 3 gusting 11 12.8
2019-Nov-13 12:34 019 4 gusting 12 12.8
2019-Nov-13 12:29 077 6 gusting 12 12.8
2019-Nov-13 12:25 053 6 gusting 11 12.8
2019-Nov-13 12:19 066 4 gusting 9 12.8
2019-Nov-13 12:14 087 4 gusting 9 12.8
2019-Nov-13 12:09 092 3 gusting 10 12.8
2019-Nov-13 12:04 005 2 gusting 9 12.8
2019-Nov-13 11:59 360 5 gusting 10 12.8
2019-Nov-13 11:54 045 4 gusting 10 12.8
2019-Nov-13 11:49 067 5 gusting 11 12.8
2019-Nov-13 11:44 052 3 gusting 9 12.8
2019-Nov-13 11:39 042 3 gusting 17 12.8
2019-Nov-13 11:34 034 6 gusting 17 12.2
2019-Nov-13 11:29 042 6 gusting 11 12.2
2019-Nov-13 11:25 080 2 gusting 14 12.2
2019-Nov-13 11:19 056 6 gusting 12 12.2
2019-Nov-13 11:14 009 7 gusting 12 12.2
2019-Nov-13 11:10 060 3 gusting 11 12.2
2019-Nov-13 11:04 016 3 gusting 13 12.2
2019-Nov-13 10:59 049 6 gusting 13 12.2
2019-Nov-13 10:54 355 2 gusting 9 12.2
2019-Nov-13 10:50 042 6 gusting 9 12.2
2019-Nov-13 10:44 032 5 gusting 9 12.2
2019-Nov-13 10:39 013 3 gusting 12 12.2
2019-Nov-13 10:34 074 4 gusting 16 12.2
2019-Nov-13 10:30 005 3 gusting 8 12.2
2019-Nov-13 10:24 032 1 gusting 9 12.2
2019-Nov-13 10:19 074 4 gusting 9 12.2
2019-Nov-13 10:15 360 5 gusting 8 12.2
2019-Nov-13 10:09 011 3 gusting 8 12.2
2019-Nov-13 10:04 041 2 gusting 10 12.2
2019-Nov-13 09:59 049 4 gusting 13 12.2
2019-Nov-13 09:54 031 6 gusting 13 12.2
2019-Nov-13 09:49 045 3 gusting 14 12.2
2019-Nov-13 09:44 039 5 gusting 14 12.2
2019-Nov-13 09:39 022 2 gusting 12 12.2
2019-Nov-13 09:34 071 4 gusting 12 12.2
2019-Nov-13 09:29 072 3 gusting 11 12.2
2019-Nov-13 09:24 023 4 gusting 11 12.2
2019-Nov-13 09:20 057 4 gusting 11 12.2
2019-Nov-13 09:14 039 4 gusting 12 12.2
2019-Nov-13 09:09 045 4 gusting 12 12.2
2019-Nov-13 09:04 346 4 gusting 10 12.2
2019-Nov-13 09:00 360 5 gusting 10 12.2
2019-Nov-13 08:54 062 5 gusting 12 12.2
2019-Nov-13 08:49 336 5 gusting 13 12.2
2019-Nov-13 08:44 022 7 gusting 13 12.2
2019-Nov-13 08:40 047 2 gusting 11 12.2
2019-Nov-13 08:34 013 5 gusting 12 12.2
2019-Nov-13 08:29 054 5 gusting 12 12.2
2019-Nov-13 08:24 350 4 gusting 10 12.2
2019-Nov-13 08:20 076 5 gusting 11 12.2
2019-Nov-13 08:14 360 6 gusting 11 12.2
2019-Nov-13 08:09 345 6 gusting 13 12.2
2019-Nov-13 08:04 053 7 gusting 14 12.2
2019-Nov-13 07:59 040 7 gusting 14 12.2
2019-Nov-13 07:54 330 5 gusting 12 12.2
2019-Nov-13 07:49 083 6 gusting 16 12.2
2019-Nov-13 07:45 024 9 gusting 15 12.8
2019-Nov-13 07:39 040 8 gusting 13 12.8
2019-Nov-13 07:34 098 6 gusting 13 12.8
2019-Nov-13 07:29 005 4 gusting 9 13.3
2019-Nov-13 07:24 086 3 gusting 13 13.3
2019-Nov-13 07:19 360 6 gusting 13 13.3
2019-Nov-13 07:14 063 3 gusting 9 13.3
2019-Nov-13 07:10 036 6 gusting 9 13.3
2019-Nov-13 07:04 021 4 gusting 8 13.3
2019-Nov-13 06:59 069 3 gusting 11 13.3
2019-Nov-13 06:55 040 2 gusting 12 13.9
2019-Nov-13 06:49 023 5 gusting 12 13.3
2019-Nov-13 06:44 355 4 gusting 9 13.9
2019-Nov-13 06:39 342 3 gusting 8 13.9
2019-Nov-13 06:35 350 4 gusting 10 13.9
2019-Nov-13 06:29 360 5 gusting 10 14.4
2019-Nov-13 06:24 026 5 gusting 12 14.4
2019-Nov-13 06:19 011 6 gusting 12 14.4
2019-Nov-13 06:15 064 6 gusting 10 15.0
2019-Nov-13 06:09 005 1 gusting 8 15.0
2019-Nov-13 06:04 015 5 gusting 11 15.0
2019-Nov-13 06:00 005 5 gusting 11 15.0
2019-Nov-13 05:54 032 4 gusting 12 15.0
2019-Nov-13 05:49 011 4 gusting 12 15.0
2019-Nov-13 05:44 338 3 gusting 8 15.0
2019-Nov-13 05:40 311 5 gusting 8 15.0
2019-Nov-13 05:34 032 2 gusting 9 15.0
2019-Nov-13 05:29 339 3 gusting 10 15.0
2019-Nov-13 05:24 337 5 gusting 10 15.0
2019-Nov-13 05:19 360 6 gusting 13 15.0
2019-Nov-13 05:14 326 3 gusting 10 15.0
2019-Nov-13 05:09 005 6 gusting 10 15.0
2019-Nov-13 05:05 360 4 gusting 9 15.0